Temperature
19 20 21 21 21 20 20 19 19 20 19 19 18 17 17 18 18 18 18 18 19 19 19 18 18 18 17 17 17 17 16 16 16 16 16 16 16 16 16 16 16 16 15 15
20 20 21 21 21 20 20 20 20 20 19 18 17 18 17 17 18 18 18 18 19 19 19 18 18 18 17 17 17 17 17 17 16 16 16 16 16 16 15 15 15 15 15 15
18 19 21 20 20 19 19 19 19 19 19 17 17 16 16 17 17 17 18 18 19 19 19 18 18 18 18 17 17 17 17 16 16 16 16 16 16 15 15 15 15 15 15 15
16 19 19 18 19 19 18 18 18 18 17 16 16 16 17 17 18 18 18 19 19 19 19 18 18 18 17 17 17 17 16 16 16 16 16 16 16 15 15 15 15 15 14 14
14 16 18 19 18 18 18 18 17 16 16 16 16 16 17 17 17 18 18 18 18 18 18 18 18 18 17 17 17 16 16 16 16 16 16 16 15 15 15 15 14 14 14 14
14 16 17 18 18 18 18 17 17 16 16 16 16 16 16 17 17 17 18 18 18 18 18 18 18 17 17 17 17 16 16 16 16 15 15 15 15 14 14 14 14 14 13 13
14 15 16 16 16 18 18 17 17 16 16 16 15 16 16 16 16 17 17 17 17 17 17 17 17 17 17 16 16 16 16 15 15 15 15 14 14 14 14 13 13 13 12 12
13 15 15 15 15 16 15 16 16 16 16 16 16 16 16 16 16 16 16 16 16 16 16 16 16 16 16 15 15 15 15 15 15 14 14 14 13 13 13 13 13 12 11 11
12 13 13 14 14 15 15 16 16 16 16 16 16 16 16 15 16 16 16 15 15 15 15 15 15 15 15 14 14 14 14 14 14 14 13 13 13 12 12 12 11 11 10 10
12 13 13 14 14 15 15 16 16 16 16 16 16 15 15 15 15 15 14 14 14 14 14 14 14 14 14 14 13 13 13 13 13 13 12 12 11 11 11 11 10 10 10 10
12 12 13 14 14 14 15 15 15 16 16 16 15 15 14 14 14 14 13 13 13 13 13 13 13 13 13 13 13 13 12 12 12 12 11 11 10 10 10 9 9 10 9 9
12 12 12 13 14 14 14 15 15 15 15 14 14 14 14 13 13 13 13 13 13 13 12 12 12 12 12 12 12 12 12 11 11 11 10 10 10 8 8 8 8 8 8 8
13 13 13 13 14 14 14 14 14 14 14 14 13 13 13 13 12 12 12 12 12 12 11 11 11 11 11 11 11 11 11 10 10 10 9 9 9 8 7 7 7 7 6 6
13 13 12 13 13 13 13 13 13 13 13 13 13 12 12 12 11 11 11 11 11 11 11 11 10 10 10 10 10 10 10 9 9 9 9 8 8 8 7 7 6 6 5 5
13 13 12 12 12 12 12 12 12 12 12 12 12 11 11 11 11 10 10 10 10 10 10 10 10 9 9 9 9 9 9 9 9 8 8 8 7 7 7 6 6 5 5 5
12 12 12 12 12 11 11 11 11 11 11 11 11 11 10 10 10 10 9 9 9 9 9 9 9 9 9 9 9 9 8 8 8 8 7 7 7 7 6 6 5 5 5 4
10 10 11 11 11 11 11 11 11 11 10 10 10 10 10 10 9 9 9 9 9 9 9 9 8 8 8 9 9 8 8 8 8 7 7 7 7 6 6 6 5 5 4 4
11 11 11 11 11 11 11 11 10 10 10 10 10 9 9 9 8 8 8 8 8 8 8 8 8 8 8 8 8 8 8 7 7 7 7 7 6 6 6 5 5 5 4 4
11 11 11 10 10 10 10 10 10 10 9 9 9 9 9 8 8 8 8 8 8 8 7 7 8 8 8 8 8 7 7 7 7 7 6 6 6 5 5 5 5 4 4 4
10 10 10 10 10 10 10 10 9 9 9 9 9 8 8 8 8 8 8 8 8 8 7 7 7 7 7 7 7 7 7 7 6 6 6 6 5 5 5 5 4 4 4 3
10 9 9 9 9 9 9 9 9 9 9 9 9 8 8 7 8 8 8 7 7 7 7 7 7 7 7 7 7 7 6 6 6 6 6 5 5 5 5 4 4 4 3 3
9 9 9 9 9 9 9 9 9 9 8 8 8 8 8 7 7 7 7 7 7 7 7 7 7 7 7 7 6 6 6 6 6 6 6 5 5 5 4 4 4 3 3 3
9 9 9 9 9 9 8 8 9 9 8 8 8 8 8 8 7 7 7 7 7 7 7 7 7 7 7 6 6 6 6 6 6 5 5 5 5 5 4 4 4 3 3 3
8 8 9 9 9 8 8 8 8 8 8 8 8 8 8 7 7 7 7 7 7 7 7 7 6 6 6 6 6 6 6 6 5 5 5 5 4 4 4 4 3 3 3 3
8 8 8 8 8 8 8 8 8 8 8 7 7 7 7 8 7 7 7 7 7 6 6 6 6 6 6 6 6 6 6 5 5 5 5 4 4 4 4 4 3 3 3 3
9 8 8 9 8 8 8 8 8 8 7 7 7 7 7 7 7 7 7 6 6 6 6 6 6 6 6 6 6 6 5 5 5 5 5 4 4 4 4 3 3 3 3 3
8 8 8 8 8 8 8 8 8 8 8 8 7 7 7 7 7 7 6 6 6 6 6 6 6 6 6 6 5 5 5 5 5 5 4 4 4 4 4 3 3 3 3 3
Wind_Speed
3 3 4 4 4 6 5 7 8 7 6 7 5 4 2 3 5 6 6 7 7 8 7 7 6 6 6 6 7 7 8 7 7 7 7 7 6 6 6 7 7 6 6 6
2 2 3 3 2 4 3 4 3 3 4 4 2 1 1 3 5 5 6 6 6 7 7 7 7 7 7 6 7 7 8 8 7 7 7 7 7 7 7 7 7 7 6 6
1 3 3 1 3 4 4 2 5 6 5 1 2 2 1 2 4 5 5 5 6 6 6 6 7 8 8 7 7 8 8 7 7 8 8 7 8 8 8 7 7 7 7 7
3 2 4 6 2 4 6 2 0 1 1 1 1 1 1 1 2 2 3 4 4 5 5 6 6 6 6 7 7 7 7 7 7 8 8 8 8 8 8 7 8 8 8 8
4 4 2 3 1 4 5 1 1 1 1 1 2 2 3 3 2 1 1 2 3 4 4 5 7 8 8 7 7 7 7 7 7 8 9 9 9 8 8 9 9 8 8 9
5 5 7 7 2 1 4 1 2 2 3 2 2 2 2 2 3 3 2 2 3 4 5 5 5 7 8 8 8 8 8 8 8 8 9 10 10 9 9 9 10 11 11 10
5 4 5 3 4 1 5 6 3 3 4 3 2 3 1 2 2 2 3 4 4 5 4 4 5 7 8 7 7 7 8 8 9 9 9 10 10 10 11 12 12 12 12 11
4 4 6 3 1 4 5 2 2 3 2 2 2 2 2 3 3 4 5 5 5 5 5 4 5 7 7 6 6 8 9 10 10 10 10 10 12 11 11 12 13 12 12 11
5 5 3 2 2 2 2 1 1 2 2 4 4 2 3 3 3 4 5 5 5 6 6 6 5 7 8 6 8 10 11 11 11 12 11 10 12 12 10 10 10 10 10 9
1 3 3 2 1 2 1 1 1 2 3 3 4 4 3 3 3 4 5 5 5 7 8 7 7 8 10 9 9 11 12 12 11 12 12 11 9 9 9 9 9 10 9 9
2 3 2 2 1 2 2 2 2 3 3 4 5 4 4 4 4 4 5 6 6 7 9 9 9 9 10 10 12 14 14 13 12 12 13 12 12 10 9 7 7 10 9 9
5 5 4 3 2 1 1 1 2 3 3 4 5 5 6 6 5 6 7 7 8 9 10 10 10 11 10 10 12 14 13 12 11 11 11 12 13 14 18 15 17 16 13 11
4 2 3 2 1 1 1 1 2 3 4 5 5 7 8 7 7 7 8 9 9 10 10 11 12 12 10 10 13 14 14 12 10 11 11 11 11 12 12 13 17 17 15 14
3 2 1 1 1 0 1 3 5 5 6 7 7 8 10 10 9 10 10 9 10 12 12 12 13 12 10 12 14 14 14 14 12 10 10 10 10 10 10 11 10 8 10 13
3 3 4 2 2 2 3 5 7 7 8 9 9 10 11 12 11 11 10 10 12 13 12 12 13 11 10 12 14 14 13 10 10 10 10 10 10 10 10 11 10 9 8 8
2 2 3 4 4 4 5 6 7 8 9 10 10 11 12 12 13 12 10 10 12 12 11 12 12 10 10 12 13 12 11 16 13 11 10 10 9 10 9 9 9 8 7 5
4 4 4 4 5 5 5 6 8 9 11 11 12 12 13 14 14 13 12 11 12 12 11 12 11 10 11 11 11 10 10 12 15 11 9 9 9 9 8 8 7 6 5 4
4 4 4 6 6 7 7 8 9 11 11 12 13 13 14 14 14 13 12 12 14 13 11 10 11 11 11 11 10 9 9 9 9 9 9 8 8 8 7 7 7 7 5 5
5 5 4 5 7 8 9 9 11 12 12 13 14 13 13 13 12 12 12 12 13 12 8 9 12 11 11 11 11 9 10 10 10 9 8 9 8 7 7 7 6 6 6 5
7 7 8 8 9 10 11 12 13 13 13 13 15 14 14 12 12 12 12 10 6 6 7 9 10 10 10 10 12 9 10 10 10 9 8 7 7 7 6 6 6 6 5 4
9 10 11 11 12 12 13 14 14 14 13 13 14 14 13 11 10 10 11 9 5 6 9 11 8 8 8 9 11 9 9 9 8 8 7 7 7 7 6 6 6 5 5 4
9 11 13 13 13 13 12 12 13 14 13 13 13 13 13 12 11 9 8 6 6 9 8 7 7 9 10 10 8 8 8 8 7 7 7 7 7 6 6 6 5 5 4 4
10 12 12 13 14 13 13 11 12 12 12 12 12 12 11 8 7 8 7 4 5 9 8 6 9 12 12 8 7 7 8 7 7 6 6 6 6 6 6 6 5 4 4 3
11 12 12 12 13 14 13 11 10 10 11 10 9 10 10 8 6 4 5 7 9 10 7 8 12 12 10 6 6 6 6 6 6 5 6 5 5 5 5 5 4 4 4 4
12 12 12 13 12 10 11 11 11 11 10 8 8 7 6 6 6 6 6 7 10 9 6 7 11 10 7 6 6 6 5 5 6 6 6 5 5 5 5 5 4 4 4 4
10 10 9 9 9 9 8 9 8 8 8 8 6 6 6 6 7 7 6 7 8 8 6 4 5 7 5 5 5 5 5 5 5 5 5 5 5 5 5 5 6 5 5 5
11 10 9 9 8 7 8 8 8 7 7 8 7 6 7 7 7 7 7 6 6 5 5 4 4 5 5 5 5 5 5 5 5 4 4 4 5 5 5 6 6 6 7 7
Wind_Direction
211 212 170 173 173 164 155 167 171 214 224 261 276 267 245 168 154 154 159 160 165 169 170 163 161 163 172 168 164 162 157 159 162 155 146 140 139 140 139 142 149 146 142 139
30 19 135 125 139 144 134 150 170 178 245 272 307 67 96 145 157 163 172 174 171 167 166 165 167 168 169 167 161 154 154 156 149 138 136 137 138 133 130 128 125 122 125 130
207 314 71 156 221 164 151 179 165 190 231 293 357 25 146 161 166 173 170 170 173 173 174 171 168 164 168 170 156 152 153 150 149 146 145 144 140 131 132 130 120 114 114 113
135 109 195 238 279 147 127 101 70 182 252 192 167 57 50 104 164 173 171 174 176 173 172 169 158 151 151 150 151 152 149 148 146 144 143 137 131 129 127 118 115 112 108 107
129 165 234 269 210 151 138 173 283 165 144 117 114 52 14 30 48 173 193 174 170 165 162 158 156 154 145 145 148 151 153 152 152 149 144 137 132 127 123 117 109 104 101 103
130 157 210 231 284 306 116 213 259 165 165 169 105 72 287 4 25 25 42 85 116 125 127 139 150 149 144 148 150 157 158 154 147 143 140 135 130 122 112 109 107 101 93 89
146 185 244 264 305 69 163 220 209 178 176 165 171 194 218 11 24 35 60 75 90 108 115 130 137 138 143 148 155 154 143 134 129 128 126 124 121 117 115 111 105 98 92 81
143 170 234 305 51 171 212 248 158 163 158 141 135 114 84 56 48 54 61 70 85 96 96 101 121 130 130 134 128 122 122 121 120 117 117 120 117 113 113 113 109 104 98 86
184 205 244 280 226 269 240 209 187 163 159 144 134 119 91 67 51 51 61 63 77 98 94 84 93 115 118 113 116 117 114 112 111 107 105 111 116 116 112 110 110 109 105 99
217 261 262 291 319 338 345 218 221 160 146 144 140 129 110 92 70 61 62 65 77 99 102 94 90 97 106 110 114 111 107 104 104 104 99 94 93 99 108 112 114 112 109 106
239 271 312 330 331 332 23 47 74 85 103 130 132 127 125 114 95 83 78 71 76 87 95 96 96 97 101 107 109 105 101 100 98 97 98 91 82 74 82 75 105 116 113 113
213 223 202 231 247 318 42 64 92 94 88 98 120 127 119 109 98 94 90 87 87 87 91 93 95 94 92 98 105 108 105 101 100 101 100 100 97 83 64 74 77 81 92 103
209 209 202 225 270 345 156 123 109 110 124 112 101 109 111 104 98 96 94 93 95 95 96 97 95 92 92 95 99 103 107 107 106 106 108 109 109 109 100 76 66 70 81 92
191 157 204 224 219 353 127 122 110 98 96 103 107 106 106 103 100 95 93 94 97 96 95 96 96 93 95 99 100 100 102 105 107 107 108 108 108 108 111 112 101 78 69 85
214 191 187 168 122 109 119 120 115 110 106 102 105 108 108 107 103 97 94 97 97 95 94 97 97 94 96 102 103 104 105 107 105 105 104 105 106 107 107 107 108 106 100 85
156 130 145 147 145 140 135 131 127 124 120 115 111 109 108 106 102 97 93 96 101 99 97 97 96 97 100 103 103 102 104 110 109 108 108 108 109 111 111 112 113 112 110 110
165 172 167 161 156 149 144 138 133 128 124 121 119 117 113 108 102 98 94 93 95 94 95 98 99 99 99 101 103 105 107 112 112 110 111 114 115 116 118 119 119 116 112 117
189 179 171 163 155 147 139 132 128 125 124 122 120 117 115 114 112 109 106 102 96 88 85 93 100 99 98 100 103 107 109 111 112 114 115 116 118 121 122 123 125 121 114 105
147 144 144 148 145 138 133 127 123 121 121 121 118 114 111 109 110 109 106 102 102 100 93 98 102 100 102 107 108 108 111 112 110 109 113 115 115 118 122 124 125 126 127 123
123 126 125 123 121 122 121 119 117 116 117 117 114 111 108 107 108 106 100 92 90 106 114 108 103 101 104 111 111 112 115 118 120 120 120 123 124 124 125 127 129 130 130 133
125 126 124 120 115 115 119 119 119 118 116 116 116 114 111 108 107 107 106 100 82 96 104 102 101 104 106 112 109 114 118 121 125 128 130 131 131 131 132 135 137 140 143 145
118 120 118 116 114 113 113 114 117 118 117 115 114 114 113 109 104 95 89 106 116 113 107 103 106 111 114 111 110 114 118 121 124 127 131 135 138 140 143 145 145 148 151 156
108 111 113 114 115 115 111 112 115 119 120 121 121 120 116 113 113 116 109 103 114 113 111 114 120 118 115 112 115 118 122 126 130 134 138 142 146 148 150 152 154 156 161 170
102 104 107 110 112 114 113 113 111 111 111 111 114 119 119 114 98 88 113 119 116 111 112 122 123 122 118 118 121 124 128 132 134 137 139 140 143 146 152 157 163 171 179 186
102 103 106 110 112 114 116 114 110 109 107 105 102 101 105 115 122 122 116 116 115 109 111 123 127 125 123 128 131 135 138 143 146 147 149 151 155 159 166 172 179 186 194 204
99 100 101 103 109 113 116 116 116 117 117 112 102 98 101 103 108 110 110 114 115 115 115 117 126 125 127 131 135 139 140 142 144 149 158 161 166 171 179 189 196 201 208 216
94 95 95 92 92 101 109 114 117 119 122 122 117 113 114 113 111 112 112 113 114 114 116 118 124 129 132 136 140 143 146 150 155 159 165 170 177 187 198 205 211 215 218 222
Height
1453 1449 1449 1450 1452 1454 1458 1464 1471 1467 1464 1456 1453 1452 1452 1452 1454 1456 1457 1459 1462 1464 1467 1470 1472 1475 1477 1480 1482 1485 1488 1491 1494 1498 1501 1505 1509 1512 1515 1518 1522 1525 1528 1530
1453 1449 1448 1451 1451 1452 1454 1456 1458 1459 1460 1452 1451 1451 1451 1452 1453 1454 1456 1458 1461 1463 1466 1469 1471 1474 1477 1479 1482 1485 1488 1491 1494 1497 1500 1504 1508 1511 1514 1517 1520 1523 1526 1529
1463 1455 1451 1462 1454 1453 1454 1454 1455 1458 1456 1452 1451 1451 1451 1452 1452 1453 1455 1457 1460 1462 1465 1467 1470 1473 1476 1479 1482 1485 1488 1491 1494 1497 1500 1504 1507 1510 1513 1516 1519 1522 1524 1527
1467 1461 1471 1461 1449 1448 1452 1453 1452 1452 1452 1452 1452 1452 1452 1452 1453 1453 1455 1456 1459 1461 1464 1466 1469 1472 1475 1478 1481 1484 1487 1490 1493 1497 1500 1503 1506 1508 1512 1515 1518 1520 1523 1526
1471 1472 1466 1456 1449 1449 1452 1455 1452 1452 1452 1452 1452 1452 1452 1452 1453 1454 1455 1456 1458 1460 1463 1465 1468 1471 1474 1477 1479 1483 1486 1488 1492 1495 1499 1501 1504 1507 1510 1513 1516 1519 1522 1525
1469 1470 1473 1458 1448 1447 1451 1458 1451 1451 1451 1452 1452 1456 1455 1453 1453 1453 1454 1454 1456 1459 1461 1464 1467 1469 1472 1474 1477 1480 1484 1487 1490 1494 1497 1500 1503 1506 1509 1512 1515 1517 1520 1523
1466 1467 1462 1451 1448 1448 1461 1457 1449 1449 1450 1451 1452 1453 1454 1453 1453 1453 1453 1454 1456 1458 1460 1463 1466 1468 1470 1473 1475 1479 1483 1486 1489 1493 1495 1498 1501 1504 1507 1510 1513 1516 1519 1523
1467 1467 1464 1449 1448 1451 1451 1447 1447 1448 1449 1451 1451 1451 1452 1453 1453 1453 1453 1454 1456 1458 1459 1462 1464 1467 1470 1472 1475 1478 1481 1484 1487 1491 1494 1497 1500 1503 1507 1510 1513 1516 1519 1522
1459 1459 1451 1448 1448 1448 1447 1447 1447 1448 1449 1450 1450 1451 1452 1453 1453 1454 1454 1455 1457 1458 1460 1462 1464 1466 1469 1472 1475 1477 1480 1483 1486 1490 1493 1497 1500 1503 1507 1510 1513 1517 1520 1523
1454 1451 1449 1448 1446 1447 1447 1447 1447 1448 1449 1449 1450 1451 1452 1453 1454 1455 1456 1457 1458 1459 1460 1462 1464 1466 1469 1472 1474 1477 1480 1484 1487 1489 1493 1497 1501 1505 1508 1512 1515 1518 1521 1524
1452 1449 1448 1446 1447 1447 1447 1447 1447 1448 1449 1449 1450 1451 1453 1454 1455 1456 1457 1458 1459 1460 1461 1463 1465 1467 1469 1472 1475 1478 1481 1484 1488 1491 1495 1499 1503 1507 1511 1514 1517 1520 1522 1525
1450 1447 1447 1446 1446 1447 1447 1446 1447 1448 1449 1450 1450 1451 1453 1455 1456 1457 1458 1460 1461 1462 1463 1465 1467 1469 1471 1474 1477 1479 1482 1486 1490 1494 1498 1501 1504 1509 1513 1517 1520 1523 1525 1528
1444 1444 1445 1445 1445 1446 1446 1446 1447 1448 1449 1449 1451 1452 1454 1455 1457 1459 1460 1462 1463 1464 1466 1468 1470 1472 1475 1477 1480 1482 1485 1489 1493 1497 1501 1504 1508 1511 1515 1520 1523 1526 1529 1532
1442 1443 1443 1443 1443 1444 1445 1446 1447 1448 1449 1450 1452 1453 1455 1457 1459 1461 1463 1465 1466 1468 1469 1471 1473 1476 1478 1481 1484 1487 1490 1493 1497 1501 1505 1508 1512 1515 1518 1521 1525 1529 1532 1535
1440 1441 1441 1442 1442 1443 1445 1446 1447 1448 1450 1451 1453 1455 1457 1459 1461 1463 1466 1468 1470 1471 1473 1475 1477 1480 1483 1486 1488 1491 1494 1498 1502 1505 1509 1512 1516 1519 1523 1526 1529 1531 1534 1538
1437 1438 1439 1440 1441 1443 1444 1445 1447 1448 1450 1453 1455 1457 1460 1462 1464 1467 1470 1472 1474 1475 1478 1480 1482 1485 1489 1491 1493 1496 1499 1503 1506 1509 1513 1517 1521 1524 1527 1529 1532 1535 1538 1540
1435 1436 1438 1439 1440 1442 1444 1445 1447 1449 1452 1454 1457 1460 1463 1465 1468 1471 1474 1477 1479 1481 1484 1486 1488 1491 1494 1497 1499 1501 1504 1507 1511 1515 1518 1522 1525 1528 1531 1533 1536 1539 1541 1543
1433 1434 1436 1437 1439 1441 1444 1446 1448 1451 1454 1457 1460 1463 1466 1468 1471 1475 1478 1481 1483 1486 1489 1492 1494 1497 1499 1502 1505 1507 1510 1512 1516 1519 1523 1526 1529 1531 1534 1537 1539 1541 1543 1545
1431 1433 1435 1437 1439 1442 1444 1447 1450 1453 1457 1460 1463 1466 1469 1472 1475 1479 1483 1486 1488 1491 1495 1498 1500 1503 1505 1508 1510 1512 1515 1517 1520 1523 1526 1529 1532 1534 1537 1539 1541 1543 1544 1546
1431 1433 1435 1438 1440 1443 1446 1449 1453 1456 1460 1464 1467 1470 1473 1477 1481 1484 1487 1490 1494 1496 1500 1503 1505 1507 1510 1512 1514 1517 1519 1521 1524 1527 1529 1532 1534 1536 1539 1541 1543 1544 1546 1547
1432 1434 1437 1439 1442 1446 1449 1453 1456 1460 1464 1468 1471 1474 1478 1482 1486 1489 1492 1495 1499 1502 1504 1507 1509 1512 1514 1516 1518 1520 1522 1525 1527 1529 1532 1534 1536 1538 1540 1542 1544 1545 1546 1547
1434 1436 1439 1443 1446 1450 1454 1457 1461 1465 1469 1473 1477 1480 1483 1487 1490 1494 1497 1499 1503 1506 1508 1511 1513 1515 1517 1520 1521 1523 1526 1528 1530 1532 1534 1536 1538 1540 1542 1543 1545 1546 1547 1548
1438 1440 1443 1447 1450 1454 1459 1463 1467 1471 1474 1478 1481 1485 1488 1491 1495 1497 1500 1504 1507 1510 1512 1515 1517 1519 1521 1523 1525 1527 1529 1531 1533 1534 1536 1538 1540 1541 1543 1544 1545 1546 1547 1548
1443 1446 1449 1452 1456 1460 1464 1469 1473 1476 1480 1483 1487 1490 1493 1496 1499 1502 1505 1508 1511 1513 1516 1518 1520 1522 1524 1526 1527 1529 1531 1533 1535 1536 1538 1539 1541 1542 1543 1544 1545 1546 1547 1547
1449 1452 1455 1458 1462 1466 1469 1474 1478 1482 1485 1488 1492 1495 1498 1501 1503 1506 1509 1511 1514 1516 1518 1521 1523 1525 1526 1528 1530 1531 1533 1535 1536 1537 1539 1540 1541 1542 1543 1544 1545 1546 1546 1547
1456 1459 1462 1465 1468 1471 1475 1478 1482 1486 1489 1492 1495 1499 1501 1504 1507 1509 1512 1514 1516 1519 1521 1523 1525 1526 1528 1530 1531 1533 1534 1536 1537 1538 1539 1540 1541 1542 1543 1544 1544 1545 1545 1545
1464 1466 1469 1472 1475 1478 1481 1484 1487 1490 1493 1496 1499 1502 1505 1507 1510 1512 1515 1517 1519 1521 1523 1525 1526 1528 1529 1531 1532 1534 1535 1536 1537 1538 1539 1540 1541 1542 1542 1543 1543 1544 1544 1544